Regional Weather Roundup
Issued by NWS Charleston, SC

Home | Current Version | Previous Version | Text Only | Print | Product List | Glossary On
Versions: 1 2 3 4 5 6 7 8 9 10 11 12 13 14 15 16 17 18 19 20 21 22 23 24 25 26 27 28 29 30 31 32 33 34 35 36 37 38 39 40 41 42 43 44 45 46 47 48 49 50
000
ASUS42 KCHS 221027
RWRCHS

Regional Weather Roundup
National Weather Service Charleston SC
500 AM EST MON JAN 22 2018

NOTE: "fair" indicates few or no clouds below 12,000 feet with no
significant weather and/or obstructions to visibility.

Not all stations are quality controlled. Use data with caution,
especially dewpoint observations.

SCZ027-030-031-034>040-042>050-221100-
...Southeast South Carolina...

CITY           SKY/WX    TMP DP  RH WIND       PRES   REMARKS
N Charleston   FAIR      42  40  92 NE3       30.19F
Waterfront Prk NOT AVBL
Mount Pleasant FAIR      39  39 100 CALM      30.18F FOG
Johns Island   FAIR      41  41 100 CALM      30.18F
Pinopolis        N/A     43  43 100 CALM      30.12S
Moncks Corner  FAIR      37  36  93 CALM      30.18F
Summerville    FAIR      37  36  93 CALM      30.19F
Beaufort MCAS  FAIR      43  42  97 N3        30.17F
Beaufort Arpt  FAIR      45  43  93 NE3       30.18R FOG
Hilton Head Is FAIR      45  43  93 CALM      30.18S
Walterboro     FAIR      37  36  93 CALM      30.19R
Allendale      FAIR      39  37  93 CALM      30.17S

...Southern Midlands and Pee Dee...

CITY           SKY/WX    TMP DP  RH WIND       PRES   REMARKS
Georgetown     FAIR      34  34 100 CALM      30.20S
Kingstree      FAIR      34  32  93 CALM      30.20R
Orangeburg     FAIR      39  37  92 W5        30.19S WCI  36
Barnwell         N/A     39  39 100 CALM      30.17F
Aiken          FAIR      36  36 100 CALM      30.20S
Manning        FAIR      36  36 100 MISG      30.18F
Columbia       FAIR      39  37  92 CALM      30.18S
Sumter         FAIR      39  35  88 CALM      30.16F
Florence       FAIR      39  36  89 CALM      30.20R
Myrtle Beach   FAIR      39  37  92 CALM      30.20F
N Myrtle Beach FAIR      37  36  96 CALM      30.19F

$$

GAZ063-065-086>088-099>101-113>116-118-119-134>141-150-221100-
...Southeast Georgia...

CITY           SKY/WX    TMP DP  RH WIND       PRES   REMARKS
Savannah Arpt  FAIR      44  42  93 CALM      30.17F
Hunter AAF     FAIR      45  41  86 CALM      30.13F
Fort Stewart   FAIR      42  39  89 CALM      30.14F
Statesboro     FAIR      40  40 100 CALM      30.16F
Sylvania       FAIR      41  40  97 CALM      30.17F
Claxton        PTSUNNY   41  40  97 CALM      30.16F

...CSRA, Central and far Southeast Georgia...

CITY           SKY/WX    TMP DP  RH WIND       PRES   REMARKS
Thomson        FAIR      39  38  95 S3        30.19F
Augusta-Bush   FAIR      36  36 100 CALM      30.16F FOG
Augusta-Daniel FAIR      49  41  74 E6        30.17F
Swainsboro     FAIR      45  41  87 E5        30.15F
Vidalia        FAIR      43  41  93 E3        30.14F
Eastman        FAIR      43  35  74 CALM      30.15F
Hazlehurst     FAIR      52  39  61 S3        30.14R
Alma           FAIR      42  38  85 CALM      30.14F
Waycross       FAIR      43  39  88 CALM      30.14F
Jesup          FAIR      45  39  81 CALM      30.15S
Baxley         FAIR      41  39  93 CALM      30.14S
Brunswick      FAIR      43  41  93 CALM      30.16S
Saint Simons   FAIR      51  49  92 CALM      30.14F

$$

SCZ027-028-034-036>038-045-046-048>050-GAZ119-141-221100-
...Lake and Supplemental Coastal Observations...

STATION/POSITION TIME  TEMP    WIND        PRES    WAVE   SWELL
                       AIR SEA DIR/SP/G            HT/PER HT/PER/DIR
                 (UTC) (F)     (DEG/KT/KT) (MB)    (FT/S) (FT/S/D)
Winyah Bay       0945   39        CALM     1022.0F
Lake Murray      1020   44        CALM     1021.3S
ACE Basin NERRS  0945   43        CALM     1021.0F
Fort Pulaski     1000   49 46   80/  2/  3 1021.4
Sapelo Island    1000   46      60/  3     1021.0

$$

ANZ835-935-AMZ111-154-330-350-352-354-370-450-454-472-221100-
...C-MAN and Buoy Observations...

STATION/POSITION TIME  TEMP    WIND        PRES    WAVE   SWELL
                       AIR SEA DIR/SP/G            HT/PER HT/PER/DIR
                 (UTC) (F)     (DEG/KT/KT) (MB)    (FT/S) (FT/S/D)
Buoy 41004       1010   67 70  210/  4/  6 1021.7
Buoy 41008       0950   55 50   70/  6/  6 1020.9S   1/10   2/110/10
Folly Beach CMAN 1000   47      20/  4/  4 1022.5F
Capers Nearshore 1008   46 50   40/  6/ 10 1021.9
Fripp Nearshore  1008   46 47   70/  6/  8 1020.7F


STATION/POSITION TIME  TEMP    WIND        PRES    WAVE   SWELL
                       AIR SEA DIR/SP/G            HT/PER HT/PER/DIR
                 (UTC) (F)     (DEG/KT/KT) (MB)    (FT/S) (FT/S/D)
5E St. Marys GA  1000      49                N/A     1/11
Frying Pan Buoy  1010   60 66   30/  8/  8 1022.6
Buoy 41025       1010   61 73  290/  4/  6 1023.4
Cape Lookout NC  1000             CALM     1023.0F
Buoy 41002       0950   66 70   70/  4/  4 1023.3R   2/10   2/100/10
Buoy 41010       NOT AVBL
St Augustine FL  1000   54 53  350/  5/  5 1020.6F


$$




USA.gov is the U.S. government's official web portal to all federal, state and local government web resources and services.